Regional Weather Roundup
Issued by NWS Raleigh/Durham, NC

Home | Current Version | Previous Version | Text Only | Print | Product List | Glossary On
Versions: 1 2 3 4 5 6 7 8 9 10 11 12 13 14 15 16 17 18 19 20 21 22 23 24 25 26 27 28 29 30 31 32 33 34 35 36 37 38 39 40 41 42 43 44 45 46 47 48 49 50
000
ASUS42 KRAH 251410
RWRRAH
NORTH CAROLINA WEATHER ROUNDUP
NATIONAL WEATHER SERVICE RALEIGH NC
900 AM EST SUN JAN 25 2015

NOTE: "FAIR" INDICATES FEW OR NO CLOUDS BELOW 12,000 FEET WITH NO
SIGNIFICANT WEATHER AND/OR OBSTRUCTIONS TO VISIBILITY.

NCZ001-053-055-056-065-067-251500-
WESTERN NORTH CAROLINA

CITY           SKY/WX    TMP DP  RH WIND       PRES   REMARKS
ASHEVILLE      SUNNY     30  26  85 CALM      29.90S
JEFFERSON      MOSUNNY   32  25  74 CALM      29.83R
MORGANTON      MOSUNNY   35  29  79 CALM      29.95R
HICKORY        MOSUNNY   36  28  73 CALM      29.90R
RUTHERFORDTON  SUNNY     33  28  82 CALM      29.92S
MOUNT AIRY     MOSUNNY   35  29  79 CALM      29.90S
BOONE          PTSUNNY   32  29  87 CALM      29.85R
$$

NCZ021-022-025-041-071-084-088-251500-
CENTRAL NORTH CAROLINA

CITY           SKY/WX    TMP DP  RH WIND       PRES   REMARKS
CHARLOTTE      MOSUNNY   34  27  75 CALM      29.94R
GREENSBORO     PTSUNNY   35  28  75 SW7       29.90S WCI  29
WINSTON-SALEM  MOSUNNY   35  27  72 CALM      29.92R
RALEIGH-DURHAM MOSUNNY   37  28  70 SW5       29.94R WCI  33
FORT BRAGG     SUNNY     38  28  68 SW1       29.97R
FAYETTEVILLE   SUNNY     38  30  73 W5        29.97R WCI  34
BURLINGTON     MOSUNNY   35  28  75 SW5       29.92R WCI  31
LAURINBURG     SUNNY     35  30  82 CALM      29.98S
$$

NCZ011-015-027-028-043-044-047-080-103-251500-
NORTHEASTERN NORTH CAROLINA

CITY           SKY/WX    TMP DP  RH WIND       PRES   REMARKS
ROCKY MT-WILSO SUNNY     38  30  73 SW3       29.95S
GREENVILLE     SUNNY     41  32  70 W3        29.98R
WASHINGTON     SUNNY     38  31  74 W5        29.97R WCI  35
ELIZABETH CITY SUNNY     39  30  70 W8        29.94R WCI  33
MANTEO         SUNNY     43  32  65 W6        29.94S
CAPE HATTERAS  SUNNY     44  32  62 NW9       29.96R
$$

NCZ078-087-090-091-093-098-101-251500-
SOUTHEASTERN NORTH CAROLINA

CITY           SKY/WX    TMP DP  RH WIND       PRES   REMARKS
LUMBERTON      SUNNY     36  31  82 CALM      29.97F
GOLDSBORO      SUNNY     37  36  96 SW2       29.96R
KINSTON        SUNNY     39  30  70 CALM      29.98R
KENANSVILLE    SUNNY     37  33  86 CALM      29.99R
NEW BERN       SUNNY     42  31  64 W6        29.99R
CHERRY POINT   SUNNY     41  32  70 W5        29.99R
BEAUFORT       SUNNY     43  33  68 NW7       29.98R
JACKSONVILLE   SUNNY     40  34  79 W6        29.99R
WILMINGTON     SUNNY     41  35  79 NW5       30.00R
$$




USA.gov is the U.S. government's official web portal to all federal, state and local government web resources and services.